La Paz, Bolivia

10:20 PM -04 en Noviembre 20, 2017 (GMT -0400)
El Alto International

Tiempo Historia de SLLP - Noviembre, 2017

Change the Weather History Date:

Martes, Noviembre 14, 2017

  Actual Average Record
Temperature  
Temperatura media 50 ° F -  
Temperatura máxima 66 ° F 58 ° F 68 ° F (2011)
Temperatura mínima 33 ° F 36 ° F 30 ° F (2011)
Degree Days  
Grados día de calefacción 16    
Moisture  
Punto de rocío 31 ° F    
Average Humidity 52    
Maximum Humidity 93    
Minimum Humidity 13    
Precipitación  
Precipitación 0.00 pul - - ()
Presión al nivel del mar  
Presión al nivel del mar 30.58 pul    
Viento  
Velocidad del viento 5 mph ()    
Velocidad máxima del viento 12 mph    
Max Gust Speed 24 mph    
Visibilidad 6.1 Millas    
Eventos Niebla    
Averages and records for this station are not official NWS values.
T = Trace of Precipitation, MM = Missing Value Source: Averaged Metar Reports

Daily Weather History Graph

Daily Weather History Graph

Search for Another Location

Airport or City:

Trip Planner

Search our weather history database for the weather conditions in past years. The results will help you decide how hot, cold, wet, or windy it might be!

Date:

Astronomía

Nov. 14, 2017 Salida Puesta
Hora real 5:50 AM -04 6:43 PM -04
Crepúsculo civil 5:27 AM -04 7:06 PM -04
Crepúsculo náutico 5:00 AM -04 7:33 PM -04
Crepúsculo astronómico 4:33 AM -04 8:01 PM -04
Luna 3:21 AM -04 (11/14) 3:42 PM -04 (11/14)
Horas de luz 13h 38m
Horas de luz
12h 52m
Creciente menguante, 14% of the Moon is Illuminated
Nov 14
Creciente menguante
Nov 18
Nueva
Nov 26
Cuarto creciente
Dic 3
Luna llena
Dic 10
Cuarto menguante

Hourly Weather History & Observations

Hora (-04) Temp. Vientos helados Punto de rocío Humedad Presión Visibilidad Wind Dir Velocidad del viento Velocidad de ráfagas Precip Eventos Condiciones
12:00 AM 39.2 ° F 35.0 ° F 35.6 ° F 87% 30.60 pul 6.2 mi ENE 5.8 mph - N/A   Nubes dispersas
1:00 AM 37.4 ° F - 35.6 ° F 93% 30.60 pul 6.2 mi Variable 2.3 mph - N/A   Nubes dispersas
2:00 AM 35 ° F - 33 ° F 89%  pul 2 mi 2.3 mph - - Niebla Poca niebla
2:00 AM 35.6 ° F - 33.8 ° F 93% 30.57 pul 2.5 mi Variable 2.3 mph - N/A Niebla Niebla
3:00 AM 35.6 ° F 31.7 ° F 33.8 ° F 93% 30.60 pul 2.5 mi ESE 4.6 mph - N/A Niebla Niebla
4:00 AM 39.2 ° F 34.2 ° F 35.6 ° F 87% 30.57 pul 2.5 mi Este 6.9 mph - N/A Niebla Niebla
5:00 AM 37 ° F - 35 ° F 90%  pul 2 mi Este 6.9 mph - - Niebla Poca niebla
5:00 AM 37.4 ° F 32.1 ° F 35.6 ° F 93% 30.60 pul 2.5 mi Este 6.9 mph - N/A Niebla Niebla
6:00 AM 35.6 ° F 30.7 ° F 33.8 ° F 93% 30.60 pul 2.5 mi Este 5.8 mph - N/A Niebla Niebla
7:00 AM 41.0 ° F 36.4 ° F 37.4 ° F 87% 30.63 pul 3.7 mi ENE 6.9 mph - N/A   Nubes dispersas
8:00 AM 46 ° F - 34 ° F 53%  pul 9 mi ESE 6.9 mph - -   Bruma
8:00 AM 46.4 ° F 42.9 ° F 33.8 ° F 62% 30.66 pul 6.2 mi ESE 6.9 mph - N/A   Parcialmente nublado
9:00 AM 53.6 ° F - 30.2 ° F 41% 30.66 pul 6.2 mi Variable 2.3 mph - N/A   Parcialmente nublado
10:00 AM 57.2 ° F - 28.4 ° F 33% 30.66 pul 6.2 mi SE 4.6 mph - N/A   Parcialmente nublado
11:00 AM 60 ° F - 27 ° F 17%  pul 12 mi SE 4.6 mph - -   Nubes dispersas
11:00 AM 60.8 ° F - 26.6 ° F 27% 30.63 pul 6.2 mi SE 4.6 mph - N/A   Parcialmente nublado
12:00 PM 60.8 ° F - 23.0 ° F 23% 30.60 pul 6.2 mi ESE 9.2 mph - N/A   Nubes dispersas
1:00 PM 62.6 ° F - 24.8 ° F 24% 30.57 pul 6.2 mi Este 10.4 mph - N/A   Nubes dispersas
2:00 PM 64 ° F - 25 ° F 13%  pul 9 mi ENE 9.2 mph - -   Parcialmente nublado
2:00 PM 64.4 ° F - 24.8 ° F 22% 30.54 pul 6.2 mi ENE 9.2 mph 20.7 mph N/A   Parcialmente nublado
3:00 PM 66.2 ° F - 24.8 ° F 21% 30.51 pul 6.2 mi ENE 9.2 mph 20.7 mph N/A   Parcialmente nublado
4:00 PM 66.2 ° F - 24.8 ° F 21% 30.48 pul 6.2 mi Este 11.5 mph 24.2 mph N/A   Parcialmente nublado
5:00 PM 65 ° F - 29 ° F 15%  pul 9 mi NE 9.2 mph - -   Parcialmente nublado
5:00 PM 64.4 ° F - 28.4 ° F 26% 30.48 pul 6.2 mi NE 9.2 mph - N/A   Parcialmente nublado
6:00 PM 57.2 ° F - 30.2 ° F 36% 30.48 pul 6.2 mi ENE 9.2 mph - N/A   Parcialmente nublado
7:00 PM 57.2 ° F - 30.2 ° F 36% 30.48 pul 6.2 mi NE 5.8 mph - N/A   Nubes dispersas
8:00 PM 54 ° F - 34 ° F 35%  pul 12 mi SE 6.9 mph - -   Nubes dispersas
8:00 PM 53.6 ° F - 33.8 ° F 47% 30.54 pul 6.2 mi SE 6.9 mph - N/A   Nubes dispersas
9:00 PM 50.0 ° F - 35.6 ° F 58% 30.57 pul 6.2 mi ENE 5.8 mph - N/A   Nubes dispersas
10:00 PM 51.8 ° F - 35.6 ° F 54% 30.60 pul 6.2 mi SSE 4.6 mph - N/A   Nubes dispersas
11:00 PM 50 ° F - 36 ° F 48%  pul 12 mi 2.3 mph - -   Nubes dispersas
11:00 PM 50.0 ° F - 35.6 ° F 58% 30.60 pul 6.2 mi Variable 2.3 mph - N/A   Nubes dispersas